Weather Roundup
Issued by NWS

Home | Current Version | Previous Version | Graphics & Text | Print | Product List | Glossary Off
Versions: 1 2 3 4 5 6 7 8 9 10 11 12 13 14 15 16 17 18 19 20 21 22 23 24 25 26 27 28 29 30 31 32 33 34 35 36 37 38 39 40 41 42 43 44 45 46 47 48 49 50

000
NZUS93 KARX 230659
HRRWXR

CURRENT HOURLY OBSERVATIONS ACROSS
MUCH OF THE UPPER MISSISSIPPI VALLEY
NATIONAL WEATHER SERVICE LA CROSSE WI
200 AM CDT TUE MAY 23 2017


...SOUTHEAST MINNESOTA...


CITY           SKY/WX    TMP DP  RH WIND       PRES   REMARKS
ROCHESTER      RAIN      51  50  96 N8        29.81F FOG
ROCHESTER/MAYO CLOUDY    53  49  89 NW5       29.80F
WINONA         MOCLDY    54  52  94 NW3       29.79S
AUSTIN         CLOUDY    52  48  87 NW6       29.81F
ALBERT LEA     CLOUDY    52  48  87 CALM      29.83S
DODGE CENTER   CLOUDY    50  48  93 NW7       29.81F
PRESTON        CLOUDY    51  48  90 NW7       29.80F
OWATONNA       CLOUDY    52  45  76 CALM      29.82F
FARIBAULT      DRIZZLE   52  46  82 NW3       29.83S
$$

...ELSEWHERE IN MINNESOTA...


CITY           SKY/WX    TMP DP  RH WIND       PRES   REMARKS
MINNEAPOLIS    CLOUDY    53  47  79 S3        29.82F
INTNL FALLS    CLOUDY    48  46  93 NE7       29.85R FOG
DULUTH         CLOUDY    47  44  90 N5        29.81F
RED WING       RAIN      54  46  76 N5        29.80F
REDWOOD FALLS  CLOUDY    50  42  74 NW10      29.86F
MANKATO        CLOUDY    51  49  92 W7        29.84F
WORTHINGTON    CLOUDY    48  46  93 NW7       29.88F
FAIRMONT       CLOUDY    51  48  89 NW9       29.86S
$$

...SOUTHWEST WISCONSIN...


CITY           SKY/WX    TMP DP  RH WIND       PRES   REMARKS
LA CROSSE      FOG       53  53 100 CALM      29.77F VSB 3/4
PRAIRIE DU CHI MOCLDY    53  51  95 CALM      29.79F
BOSCOBEL       CLOUDY    55  52  89 CALM      29.79F
LONE ROCK      NOT AVBL
PLATTEVILLE    MOCLDY    55  55 100 SE5       29.80F
FORT MC COY    MOCLDY    52  51  97 CALM      29.79R
CAMP DOUGLAS   CLOUDY    52  52 100 NE6       29.78F
MAUSTON-NEW LI RAIN      53  52  97 NE3       29.79F
VIROQUA        FAIR      51  51  99 MISG      29.78F
WIS DELLS      CLOUDY    54  51  90 S7        29.79F
$$

...ELSEWHERE IN WISCONSIN...


CITY           SKY/WX    TMP DP  RH WIND       PRES   REMARKS
MILWAUKEE      CLOUDY    59  54  83 S8        29.82F
MADISON        CLOUDY    56  54  93 VRB3      29.79F
GREEN BAY      CLOUDY    50  46  86 E5        29.82F
EAU CLAIRE     NOT AVBL
BLACK RVR FLS  RAIN      52  52 100 CALM      29.79F
MEDFORD        MOCLDY    45  42  89 E5        29.81S
WAUSAU         CLOUDY    49  42  77 E5        29.80S
WIS RAPIDS     RAIN      51  50  96 SE5       29.83R FOG
MARSHFIELD     LGT RAIN  50  44  80 SE6       29.81R
RICE LAKE      CLOUDY    47  46  94 CALM      29.83S
$$

...NORTHEAST IOWA...


CITY           SKY/WX    TMP DP  RH WIND       PRES   REMARKS
WATERLOO       PTCLDY    52  50  93 NW7       29.79F
DUBUQUE        MOCLDY    53  52  96 S7        29.80F
DECORAH        CLOUDY    52  52 100 NW3       29.78F FOG
MASON CITY     CLOUDY    51  48  89 N12       29.84F
CHARLES CITY   PTCLDY    50  50 100 NW6       29.81F
OELWEIN        MOCLDY    52  52 100 W8        29.79F
$$

...ELSEWHERE IN IOWA...


CITY           SKY/WX    TMP DP  RH WIND       PRES   REMARKS
DES MOINES     PTCLDY    53  52  96 NW5       29.83F
IOWA CITY      CLOUDY    55  51  86 SW3       29.83F
FORT DODGE     CLOUDY    52  48  87 NW8       29.86F
MARSHALLTOWN   CLOUDY    51  50  96 NW7       29.80F
CEDAR RAPIDS   CLEAR     52  52 100 SW5       29.79F
$$

...NORTHERN ILLINOIS...


CITY           SKY/WX    TMP DP  RH WIND       PRES   REMARKS
CHICAGO-OHARE  CLOUDY    60  53  77 SW10      29.85F
CHICAGO-MIDWAY CLOUDY    61  54  77 SW10      29.86F
MOLINE         CLOUDY    56  51  84 CALM      29.83F
ROCKFORD       CLOUDY    58  54  86 SW5       29.85F
PEORIA         LGT RAIN  57  55  93 S10       29.87F
$$

NOTE: "FAIR" INDICATES FEW OR NO CLOUDS BELOW 12,000 FEET WITH NO
SIGNIFICANT WEATHER AND/OR OBSTRUCTIONS TO VISIBILITY. WIND
SPEEDS ARE IN MILES-PER-HOUR.




USA.gov is the U.S. government's official web portal to all federal, state and local government web resources and services.